,,Stat5,,Stat1,,Stat2,,Stat3,,Stat4,,Wind1,,Wind1,
time,status,PA1M_AVG,status,PR1M_SUM,status,RH1M_AVG,status,SR1M_AVG,status,TA1M_AVG,status,W1dAve1m,status,W1sAve1m,
2001-11-23, 00:00:01,VALID,919.338,VALID,0,VALID,98.707,VALID,-0.0509425,VALID,19.6938,VALID,13,VALID,0.619992,
2001-11-23, 00:01:00,VALID,919.315,VALID,0,VALID,98.7375,VALID,-0.0169808,VALID,19.7144,VALID,22,VALID,0.91139,
2001-11-23, 00:02:00,VALID,919.313,VALID,0,VALID,98.7554,VALID,-0.0849042,VALID,19.7039,VALID,29,VALID,0.795436,
2001-11-23, 00:03:00,VALID,919.293,VALID,0,VALID,98.791,VALID,-0.0679233,VALID,19.7298,VALID,22,VALID,0.659417,
2001-11-23, 00:04:00,VALID,919.275,VALID,0,VALID,98.8024,VALID,-0.0339617,VALID,19.7459,VALID,19,VALID,0.888514,
2001-11-23, 00:05:00,VALID,919.272,VALID,0,VALID,98.8088,VALID,-0.0509425,VALID,19.7529,VALID,25,VALID,1.13902,
2001-11-23, 00:06:00,VALID,919.272,VALID,0,VALID,98.8215,VALID,-0.0509425,VALID,19.7591,VALID,29,VALID,0.814762,
2001-11-23, 00:07:00,VALID,919.267,VALID,0,VALID,98.824,VALID,-0.0339617,VALID,19.7628,VALID,28,VALID,0.310714,
2001-11-23, 00:08:00,VALID,919.27,VALID,0,VALID,98.8037,VALID,-0.101885,VALID,19.7524,VALID,275,VALID,0.246745,
2001-11-23, 00:09:00,VALID,919.271,VALID,0,VALID,98.7859,VALID,-0.0509425,VALID,19.7295,VALID,287,VALID,0.177576,
2001-11-23, 00:10:00,VALID,919.248,VALID,0,VALID,98.7515,VALID,0,VALID,19.7069,VALID,2,VALID,0.410657,
2001-11-23, 00:11:00,VALID,919.232,VALID,0,VALID,98.777,VALID,-0.0849042,VALID,19.701,VALID,14,VALID,0.573808,
2001-11-23, 00:12:00,VALID,919.202,VALID,0,VALID,98.7795,VALID,-0.0339617,VALID,19.6972,VALID,19,VALID,0.715712,
2001-11-23, 00:13:00,VALID,919.202,VALID,0,VALID,98.8062,VALID,-0.0679233,VALID,19.7104,VALID,25,VALID,0.827925,
2001-11-23, 00:14:00,VALID,919.196,VALID,0,VALID,98.8444,VALID,0,VALID,19.7295,VALID,30,VALID,0.491211,
2001-11-23, 00:15:00,VALID,919.185,VALID,0,VALID,98.8393,VALID,-0.0339617,VALID,19.7392,VALID,31,VALID,0.714227,
2001-11-23, 00:16:00,VALID,919.168,VALID,0,VALID,98.852,VALID,-0.0339617,VALID,19.7358,VALID,14,VALID,0.981086,
2001-11-23, 00:17:00,VALID,919.16,VALID,0,VALID,98.8355,VALID,-0.0169808,VALID,19.7228,VALID,18,VALID,0.827919,
2001-11-23, 00:18:00,VALID,919.166,VALID,0,VALID,98.8342,VALID,-0.0339617,VALID,19.7226,VALID,28,VALID,1.10156,
2001-11-23, 00:19:00,VALID,919.145,VALID,0,VALID,98.8622,VALID,0,VALID,19.7358,VALID,14,VALID,0.92866,
2001-11-23, 00:20:00,VALID,919.135,VALID,0,VALID,98.8685,VALID,-0.0339617,VALID,19.7482,VALID,22,VALID,0.898849,
2001-11-23, 00:21:00,VALID,919.123,VALID,0,VALID,98.8609,VALID,-0.0169808,VALID,19.7385,VALID,20,VALID,0.725361,
2001-11-23, 00:22:00,VALID,919.111,VALID,0,VALID,98.8571,VALID,-0.0169808,VALID,19.7422,VALID,25,VALID,0.513672,
2001-11-23, 00:23:00,VALID,919.108,VALID,0,VALID,98.8698,VALID,-0.0169808,VALID,19.7387,VALID,21,VALID,1.18257,
2001-11-23, 00:24:00,VALID,919.092,VALID,0,VALID,98.8469,VALID,0,VALID,19.7094,VALID,19,VALID,1.39186,
2001-11-23, 00:25:00,VALID,919.072,VALID,0,VALID,98.8596,VALID,-0.0169808,VALID,19.7,VALID,19,VALID,1.06702,
2001-11-23, 00:26:00,VALID,919.071,VALID,0,VALID,98.8342,VALID,-0.0339617,VALID,19.6774,VALID,5,VALID,0.612459,
2001-11-23, 00:27:00,VALID,919.044,VALID,0,VALID,98.8342,VALID,-0.0169808,VALID,19.6582,VALID,25,VALID,0.731908,
2001-11-23, 00:28:00,VALID,919.033,VALID,0,VALID,98.8367,VALID,-0.0169808,VALID,19.6552,VALID,21,VALID,0.500822,
2001-11-23, 00:29:00,VALID,919.025,VALID,0,VALID,98.8698,VALID,-0.0509425,VALID,19.6647,VALID,23,VALID,0.748998,
2001-11-23, 00:30:01,VALID,919.007,VALID,0,VALID,98.8685,VALID,-0.0169808,VALID,19.6617,VALID,19,VALID,0.591406,
2001-11-23, 00:31:00,VALID,918.996,VALID,0,VALID,98.8838,VALID,-0.0169808,VALID,19.6615,VALID,20,VALID,0.813322,
2001-11-23, 00:32:01,VALID,918.978,VALID,0,VALID,98.9067,VALID,-0.0169808,VALID,19.6771,VALID,30,VALID,0.544819,
2001-11-23, 00:33:00,VALID,918.967,VALID,0,VALID,98.9143,VALID,-0.0169808,VALID,19.6838,VALID,32,VALID,0.457854,
2001-11-23, 00:34:00,VALID,918.937,VALID,0,VALID,98.9054,VALID,-0.0169808,VALID,19.6776,VALID,14,VALID,0.318051,
2001-11-23, 00:35:00,VALID,918.916,VALID,0,VALID,98.8965,VALID,-0.0339617,VALID,19.6483,VALID,21,VALID,0.31435,
2001-11-23, 00:36:00,VALID,918.895,VALID,0,VALID,98.9105,VALID,-0.0509425,VALID,19.655,VALID,32,VALID,0.108141,
2001-11-23, 00:37:00,VALID,918.885,VALID,0,VALID,98.899,VALID,-0.0509425,VALID,19.6388,VALID,23,VALID,0.657652,
2001-11-23, 00:38:01,VALID,918.859,VALID,0,VALID,98.8965,VALID,-0.0509425,VALID,19.6229,VALID,24,VALID,0.889063,
2001-11-23, 00:39:00,VALID,918.857,VALID,0,VALID,98.8978,VALID,-0.0169808,VALID,19.6356,VALID,9,VALID,0.563117,
2001-11-23, 00:40:01,VALID,918.851,VALID,0,VALID,98.8876,VALID,-0.0509425,VALID,19.6063,VALID,359,VALID,0.546258,
2001-11-23, 00:41:00,VALID,918.837,VALID,0,VALID,98.8927,VALID,-0.0169808,VALID,19.5966,VALID,27,VALID,0.64741,
2001-11-23, 00:42:01,VALID,918.834,VALID,0,VALID,98.8965,VALID,0,VALID,19.577,VALID,26,VALID,0.954564,
2001-11-23, 00:43:01,VALID,918.805,VALID,0,VALID,98.8914,VALID,-0.0679233,VALID,19.5807,VALID,18,VALID,0.809827,
2001-11-23, 00:44:00,VALID,918.79,VALID,0,VALID,98.9207,VALID,-0.0679233,VALID,19.6001,VALID,22,VALID,0.50185,
2001-11-23, 00:45:00,VALID,918.784,VALID,0,VALID,98.9461,VALID,-0.0169808,VALID,19.6262,VALID,23,VALID,0.438301,
2001-11-23, 00:46:01,VALID,918.759,VALID,0.2,VALID,98.9575,VALID,-0.0339617,VALID,19.652,VALID,23,VALID,0.645508,
2001-11-23, 00:47:00,VALID,918.747,VALID,0,VALID,98.9575,VALID,-0.0509425,VALID,19.6515,VALID,18,VALID,0.548931,
2001-11-23, 00:48:01,VALID,918.728,VALID,0,VALID,98.9423,VALID,-0.0169808,VALID,19.6388,VALID,18,VALID,0.450041,
2001-11-23, 00:49:00,VALID,918.708,VALID,0,VALID,98.9334,VALID,-0.0679233,VALID,19.6289,VALID,18,VALID,0.642475,
2001-11-23, 00:50:00,VALID,918.676,VALID,0,VALID,98.9486,VALID,-0.0509425,VALID,19.6227,VALID,18,VALID,0.774465,
2001-11-23, 00:51:00,VALID,918.648,VALID,0,VALID,98.9664,VALID,-0.0509425,VALID,19.6388,VALID,29,VALID,0.776521,
2001-11-23, 00:52:00,VALID,918.634,VALID,0,VALID,98.9512,VALID,-0.0169808,VALID,19.6227,VALID,21,VALID,0.681127,
2001-11-23, 00:53:00,VALID,918.638,VALID,0,VALID,98.9664,VALID,-0.0339617,VALID,19.6257,VALID,17,VALID,0.28145,
2001-11-23, 00:54:01,VALID,918.647,VALID,0,VALID,98.9881,VALID,-0.0339617,VALID,19.6381,VALID,17,VALID,0.118555,
2001-11-23, 00:55:00,VALID,918.644,VALID,0,VALID,98.9703,VALID,-0.0169808,VALID,19.6354,VALID,11,VALID,0.33162,
2001-11-23, 00:56:01,VALID,918.629,VALID,0,VALID,98.9677,VALID,-0.0169808,VALID,19.6451,VALID,10,VALID,0.574013,
2001-11-23, 00:57:01,VALID,918.625,VALID,0,VALID,98.9512,VALID,-0.0339617,VALID,19.6393,VALID,20,VALID,0.542352,
2001-11-23, 00:58:00,VALID,918.611,VALID,0,VALID,98.9575,VALID,0,VALID,19.6195,VALID,20,VALID,0.529194,
2001-11-23, 00:59:00,VALID,918.597,VALID,0,VALID,98.9626,VALID,-0.0169808,VALID,19.62,VALID,20,VALID,0.683388,
2001-11-23, 01:00:00,VALID,918.58,VALID,0,VALID,98.9614,VALID,-0.0169808,VALID,19.6162,VALID,23,VALID,0.84375,
2001-11-23, 01:01:00,VALID,918.563,VALID,0,VALID,98.9766,VALID,-0.0169808,VALID,19.6321,VALID,26,VALID,0.989984,
2001-11-23, 01:02:01,VALID,918.548,VALID,0,VALID,98.969,VALID,-0.0679233,VALID,19.6324,VALID,22,VALID,0.76543,
2001-11-23, 01:03:00,VALID,918.541,VALID,0,VALID,98.969,VALID,-0.0679233,VALID,19.6195,VALID,17,VALID,0.607319,
2001-11-23, 01:04:01,VALID,918.539,VALID,0,VALID,98.9537,VALID,0.0339617,VALID,19.6028,VALID,15,VALID,0.665502,
2001-11-23, 01:05:00,VALID,918.516,VALID,0,VALID,98.9486,VALID,0.0679233,VALID,19.6085,VALID,15,VALID,0.550164,
2001-11-23, 01:06:01,VALID,918.531,VALID,0,VALID,98.9474,VALID,0.0509425,VALID,19.5889,VALID,22,VALID,0.64741,
2001-11-23, 01:07:01,VALID,918.54,VALID,0,VALID,98.9588,VALID,0.0509425,VALID,19.6023,VALID,29,VALID,0.585321,
2001-11-23, 01:08:00,VALID,918.542,VALID,0,VALID,98.9626,VALID,0.0339617,VALID,19.5921,VALID,28,VALID,0.497122,
2001-11-23, 01:09:00,VALID,918.537,VALID,0,VALID,98.9525,VALID,0.0509425,VALID,19.5988,VALID,25,VALID,0.695513,
2001-11-23, 01:10:01,VALID,918.545,VALID,0,VALID,98.941,VALID,0.0509425,VALID,19.5827,VALID,15,VALID,0.664063,
2001-11-23, 01:11:00,VALID,918.53,VALID,0,VALID,98.9397,VALID,0.0509425,VALID,19.5959,VALID,16,VALID,0.175781,
2001-11-23, 01:12:01,VALID,918.513,VALID,0,VALID,98.9372,VALID,0.0679233,VALID,19.5728,VALID,15,VALID,0.320929,
2001-11-23, 01:13:00,VALID,918.508,VALID,0,VALID,98.9448,VALID,0.0339617,VALID,19.573,VALID,16,VALID,0.352179,
2001-11-23, 01:14:00,VALID,918.501,VALID,0,VALID,98.9321,VALID,0.0509425,VALID,19.5601,VALID,23,VALID,0.32648,
2001-11-23, 01:15:00,VALID,918.475,VALID,0,VALID,98.9423,VALID,0.0509425,VALID,19.5598,VALID,24,VALID,0.261924,
2001-11-23, 01:16:00,VALID,918.482,VALID,0,VALID,98.9474,VALID,0.0509425,VALID,19.5469,VALID,26,VALID,0.293174,
2001-11-23, 01:17:00,VALID,918.483,VALID,0,VALID,98.9614,VALID,0.0509425,VALID,19.5633,VALID,345,VALID,0.110577,
2001-11-23, 01:18:01,VALID,918.477,VALID,0,VALID,98.9194,VALID,0.0509425,VALID,19.538,VALID,341,VALID,0.283594,
2001-11-23, 01:19:00,VALID,918.47,VALID,0,VALID,98.8711,VALID,0,VALID,19.4932,VALID,354,VALID,0.280839,
2001-11-23, 01:20:01,VALID,918.464,VALID,0,VALID,98.8609,VALID,-0.0679233,VALID,19.455,VALID,288,VALID,0.257813,
2001-11-23, 01:21:00,VALID,918.454,VALID,0,VALID,98.88,VALID,-0.0169808,VALID,19.455,VALID,284,VALID,0,
2001-11-23, 01:22:00,VALID,918.445,VALID,0,VALID,98.8838,VALID,-0.0509425,VALID,19.4587,VALID,284,VALID,0,
2001-11-23, 01:23:00,VALID,918.448,VALID,0,VALID,98.8952,VALID,-0.0339617,VALID,19.4714,VALID,284,VALID,0,
2001-11-23, 01:24:00,VALID,918.439,VALID,0,VALID,98.8965,VALID,-0.0509425,VALID,19.4813,VALID,17,VALID,0.189967,
2001-11-23, 01:25:00,VALID,918.423,VALID,0,VALID,98.8965,VALID,-0.0509425,VALID,19.4813,VALID,32,VALID,0.466346,
2001-11-23, 01:26:01,VALID,918.414,VALID,0,VALID,98.9283,VALID,-0.0169808,VALID,19.5206,VALID,28,VALID,0.655273,
2001-11-23, 01:27:00,VALID,918.39,VALID,0,VALID,98.9359,VALID,-0.0679233,VALID,19.5362,VALID,17,VALID,0.832854,
2001-11-23, 01:28:01,VALID,918.376,VALID,0,VALID,98.9118,VALID,-0.0679233,VALID,19.5397,VALID,11,VALID,0.664679,
2001-11-23, 01:29:00,VALID,918.362,VALID,0,VALID,98.899,VALID,-0.0679233,VALID,19.5263,VALID,20,VALID,0.801192,
2001-11-23, 01:30:01,VALID,918.337,VALID,0,VALID,98.8812,VALID,-0.0169808,VALID,19.5101,VALID,24,VALID,0.686883,
2001-11-23, 01:31:01,VALID,918.326,VALID,0,VALID,98.866,VALID,-0.0339617,VALID,19.5037,VALID,22,VALID,0.57977,
2001-11-23, 01:32:00,VALID,918.314,VALID,0,VALID,98.8723,VALID,-0.0509425,VALID,19.5002,VALID,12,VALID,0.336143,
2001-11-23, 01:33:00,VALID,918.282,VALID,0,VALID,98.8329,VALID,-0.0509425,VALID,19.4555,VALID,357,VALID,0.371795,
2001-11-23, 01:34:01,VALID,918.264,VALID,0,VALID,98.8367,VALID,-0.0679233,VALID,19.4718,VALID,355,VALID,0.175,
2001-11-23, 01:35:00,VALID,918.243,VALID,0,VALID,98.838,VALID,-0.0339617,VALID,19.4557,VALID,356,VALID,0.175164,
2001-11-23, 01:36:01,VALID,918.203,VALID,0,VALID,98.8126,VALID,-0.0509425,VALID,19.4423,VALID,356,VALID,0.242188,
2001-11-23, 01:37:00,VALID,918.179,VALID,0,VALID,98.8024,VALID,-0.0849042,VALID,19.4433,VALID,354,VALID,0.421053,
2001-11-23, 01:38:00,VALID,918.153,VALID,0,VALID,98.7922,VALID,-0.0509425,VALID,19.4232,VALID,8,VALID,0.450247,
2001-11-23, 01:39:00,VALID,918.143,VALID,0,VALID,98.8253,VALID,0,VALID,19.4393,VALID,16,VALID,0.46176,
2001-11-23, 01:40:00,VALID,918.118,VALID,0,VALID,98.8418,VALID,-0.0509425,VALID,19.4624,VALID,12,VALID,0.55736,
2001-11-23, 01:41:00,VALID,918.09,VALID,0,VALID,98.8164,VALID,-0.0169808,VALID,19.4458,VALID,347,VALID,0.656851,
2001-11-23, 01:42:01,VALID,918.066,VALID,0,VALID,98.7528,VALID,-0.0679233,VALID,19.4038,VALID,13,VALID,0.680078,
2001-11-23, 01:43:00,VALID,918.045,VALID,0,VALID,98.7477,VALID,-0.0509425,VALID,19.3874,VALID,356,VALID,0.627467,
2001-11-23, 01:44:01,VALID,918.033,VALID,0,VALID,98.7236,VALID,-0.0849042,VALID,19.3712,VALID,358,VALID,0.394942,
2001-11-23, 01:45:01,VALID,918.022,VALID,0,VALID,98.7579,VALID,-0.0169808,VALID,19.3707,VALID,356,VALID,0.147821,
2001-11-23, 01:46:00,VALID,918.011,VALID,0,VALID,98.7299,VALID,-0.0339617,VALID,19.3585,VALID,335,VALID,0.344161,
2001-11-23, 01:47:00,VALID,917.996,VALID,0,VALID,98.7223,VALID,-0.0339617,VALID,19.3491,VALID,335,VALID,0.206003,
2001-11-23, 01:48:01,VALID,917.98,VALID,0,VALID,98.7312,VALID,-0.0339617,VALID,19.3491,VALID,335,VALID,0,
2001-11-23, 01:49:00,VALID,917.96,VALID,0,VALID,98.7312,VALID,-0.0339617,VALID,19.3556,VALID,335,VALID,0,
2001-11-23, 01:50:01,VALID,917.951,VALID,0,VALID,98.7261,VALID,0.0339617,VALID,19.3509,VALID,335,VALID,0,
2001-11-23, 01:51:00,VALID,917.929,VALID,0,VALID,98.7426,VALID,0.0339617,VALID,19.3576,VALID,335,VALID,0,
2001-11-23, 01:52:01,VALID,917.905,VALID,0,VALID,98.7325,VALID,0.0169808,VALID,19.3613,VALID,335,VALID,0,
2001-11-23, 01:53:01,VALID,917.884,VALID,0,VALID,98.707,VALID,0.0169808,VALID,19.3481,VALID,335,VALID,0,
2001-11-23, 01:54:01,VALID,917.852,VALID,0,VALID,98.688,VALID,0.0169808,VALID,19.3183,VALID,335,VALID,0,
2001-11-23, 01:55:01,VALID,917.83,VALID,0,VALID,98.6829,VALID,0,VALID,19.3253,VALID,335,VALID,0,
2001-11-23, 01:56:01,VALID,917.797,VALID,0,VALID,98.6841,VALID,0.0509425,VALID,19.322,VALID,335,VALID,0,
2001-11-23, 01:57:00,VALID,917.777,VALID,0,VALID,98.6702,VALID,0.0169808,VALID,19.3258,VALID,335,VALID,0,
2001-11-23, 01:58:01,VALID,917.748,VALID,0,VALID,98.66,VALID,0.0509425,VALID,19.3059,VALID,336,VALID,0,
2001-11-23, 01:59:01,VALID,917.724,VALID,0,VALID,98.6676,VALID,0.0339617,VALID,19.3061,VALID,336,VALID,0,
2001-11-23, 02:00:01,VALID,917.693,VALID,0,VALID,98.674,VALID,0.0509425,VALID,19.3027,VALID,336,VALID,0.0664063,
2001-11-23, 02:01:01,VALID,917.674,VALID,0,VALID,98.6663,VALID,0.0169808,VALID,19.3029,VALID,339,VALID,0.321135,
2001-11-23, 02:02:00,VALID,917.661,VALID,0,VALID,98.6702,VALID,0,VALID,19.29,VALID,345,VALID,0.318668,
2001-11-23, 02:03:00,VALID,917.643,VALID,0,VALID,98.6447,VALID,0.0169808,VALID,19.287,VALID,345,VALID,0.00904605,
2001-11-23, 02:04:01,VALID,917.631,VALID,0,VALID,98.6231,VALID,0.0169808,VALID,19.2706,VALID,353,VALID,0,
2001-11-23, 02:05:01,VALID,917.608,VALID,0,VALID,98.6409,VALID,0.0509425,VALID,19.2674,VALID,353,VALID,0,
2001-11-23, 02:06:01,VALID,917.59,VALID,0,VALID,98.6511,VALID,0.0339617,VALID,19.2671,VALID,353,VALID,0,
2001-11-23, 02:07:01,VALID,917.577,VALID,0,VALID,98.6473,VALID,0.0169808,VALID,19.2704,VALID,353,VALID,0,
2001-11-23, 02:08:01,VALID,917.574,VALID,0,VALID,98.6803,VALID,0.0169808,VALID,19.2671,VALID,353,VALID,0,
2001-11-23, 02:09:01,VALID,917.565,VALID,0,VALID,98.6167,VALID,0.0169808,VALID,19.2577,VALID,9,VALID,0.30366,
2001-11-23, 02:10:01,VALID,917.555,VALID,0,VALID,98.6384,VALID,0,VALID,19.2545,VALID,10,VALID,0.549137,
2001-11-23, 02:11:01,VALID,917.552,VALID,0,VALID,98.6587,VALID,0.0169808,VALID,19.2542,VALID,8,VALID,0.229235,
2001-11-23, 02:12:01,VALID,917.548,VALID,0,VALID,98.6498,VALID,0.0679233,VALID,19.2547,VALID,13,VALID,0.298109,
2001-11-23, 02:13:01,VALID,917.534,VALID,0,VALID,98.6689,VALID,0.0169808,VALID,19.2646,VALID,13,VALID,0.0683093,
2001-11-23, 02:14:01,VALID,917.513,VALID,0,VALID,98.688,VALID,0.0169808,VALID,19.2579,VALID,13,VALID,0,
2001-11-23, 02:15:01,VALID,917.505,VALID,0,VALID,98.6981,VALID,0.0339617,VALID,19.2637,VALID,13,VALID,0,
2001-11-23, 02:16:01,VALID,917.516,VALID,0,VALID,98.6867,VALID,0.0339617,VALID,19.2607,VALID,13,VALID,0,
2001-11-23, 02:17:01,VALID,917.517,VALID,0,VALID,98.693,VALID,0.0169808,VALID,19.2803,VALID,13,VALID,0,
2001-11-23, 02:18:01,VALID,917.509,VALID,0,VALID,98.6918,VALID,0.0509425,VALID,19.2736,VALID,13,VALID,0,
2001-11-23, 02:19:01,VALID,917.503,VALID,0,VALID,98.6841,VALID,0,VALID,19.2741,VALID,13,VALID,0.13713,
2001-11-23, 02:20:01,VALID,917.513,VALID,0,VALID,98.6956,VALID,-0.0679233,VALID,19.2815,VALID,13,VALID,0.38713,
2001-11-23, 02:21:01,VALID,917.513,VALID,0,VALID,98.7121,VALID,-0.0849042,VALID,19.3014,VALID,13,VALID,0.423878,
2001-11-23, 02:22:01,VALID,917.513,VALID,0,VALID,98.7465,VALID,-0.0849042,VALID,19.3113,VALID,13,VALID,0.501758,
2001-11-23, 02:23:01,VALID,917.507,VALID,0,VALID,98.7617,VALID,-0.101885,VALID,19.32,VALID,13,VALID,0.461965,
2001-11-23, 02:24:00,VALID,917.503,VALID,0,VALID,98.7681,VALID,-0.0679233,VALID,19.3399,VALID,14,VALID,0.50884,
2001-11-23, 02:25:00,VALID,917.496,VALID,0,VALID,98.7414,VALID,-0.0849042,VALID,19.3235,VALID,19,VALID,0.391859,
2001-11-23, 02:26:00,VALID,917.49,VALID,0,VALID,98.7503,VALID,-0.0679233,VALID,19.3302,VALID,19,VALID,0.0462582,
2001-11-23, 02:27:00,VALID,917.501,VALID,0,VALID,98.7388,VALID,-0.101885,VALID,19.3404,VALID,19,VALID,0.154605,
2001-11-23, 02:28:00,VALID,917.501,VALID,0,VALID,98.7045,VALID,-0.0849042,VALID,19.318,VALID,19,VALID,0.00411184,
2001-11-23, 02:29:00,VALID,917.485,VALID,0,VALID,98.7045,VALID,-0.101885,VALID,19.3113,VALID,19,VALID,0,
2001-11-23, 02:30:00,VALID,917.477,VALID,0,VALID,98.7096,VALID,-0.0679233,VALID,19.3173,VALID,19,VALID,0,
2001-11-23, 02:31:00,VALID,917.466,VALID,0,VALID,98.7019,VALID,-0.0679233,VALID,19.3205,VALID,19,VALID,0,
2001-11-23, 02:32:00,VALID,917.454,VALID,0,VALID,98.674,VALID,-0.0679233,VALID,19.3141,VALID,19,VALID,0.0164474,
2001-11-23, 02:33:00,VALID,917.435,VALID,0,VALID,98.6549,VALID,-0.101885,VALID,19.3111,VALID,19,VALID,0.0102796,
2001-11-23, 02:34:00,VALID,917.411,VALID,0,VALID,98.6358,VALID,-0.0849042,VALID,19.3039,VALID,19,VALID,0,
2001-11-23, 02:35:00,VALID,917.386,VALID,0,VALID,98.6142,VALID,-0.0849042,VALID,19.3041,VALID,19,VALID,0,
2001-11-23, 02:36:00,VALID,917.356,VALID,0,VALID,98.5888,VALID,-0.101885,VALID,19.321,VALID,19,VALID,0,
2001-11-23, 02:37:00,VALID,917.35,VALID,0,VALID,98.5659,VALID,-0.0679233,VALID,19.316,VALID,19,VALID,0,
2001-11-23, 02:38:00,VALID,917.354,VALID,0,VALID,98.5405,VALID,-0.0509425,VALID,19.3237,VALID,9,VALID,0,
2001-11-23, 02:39:00,VALID,917.357,VALID,0,VALID,98.5112,VALID,-0.0339617,VALID,19.3141,VALID,314,VALID,0.184827,
2001-11-23, 02:40:00,VALID,917.369,VALID,0,VALID,98.468,VALID,-0.0679233,VALID,19.3076,VALID,311,VALID,0.109786,
2001-11-23, 02:41:00,VALID,917.36,VALID,0,VALID,98.4464,VALID,-0.0849042,VALID,19.2914,VALID,311,VALID,0.000411184,
2001-11-23, 02:42:00,VALID,917.366,VALID,0,VALID,98.4438,VALID,-0.0509425,VALID,19.3071,VALID,311,VALID,0.108758,
2001-11-23, 02:43:00,VALID,917.37,VALID,0,VALID,98.4108,VALID,-0.0339617,VALID,19.3111,VALID,312,VALID,0.181332,
2001-11-23, 02:44:00,VALID,917.368,VALID,0,VALID,98.4324,VALID,-0.0849042,VALID,19.3141,VALID,340,VALID,0.263363,
2001-11-23, 02:45:00,VALID,917.353,VALID,0,VALID,98.4286,VALID,-0.0849042,VALID,19.3138,VALID,357,VALID,0.377003,
2001-11-23, 02:46:00,VALID,917.323,VALID,0,VALID,98.4209,VALID,-0.0509425,VALID,19.3203,VALID,20,VALID,0.455664,
2001-11-23, 02:47:00,VALID,917.312,VALID,0,VALID,98.4044,VALID,-0.0849042,VALID,19.327,VALID,20,VALID,0.0898438,
2001-11-23, 02:48:00,VALID,917.294,VALID,0,VALID,98.3751,VALID,-0.0679233,VALID,19.3275,VALID,20,VALID,0.0224095,
2001-11-23, 02:49:00,VALID,917.3,VALID,0,VALID,98.365,VALID,-0.0339617,VALID,19.3103,VALID,20,VALID,0,
2001-11-23, 02:50:00,VALID,917.3,VALID,0,VALID,98.3713,VALID,0.0509425,VALID,19.3061,VALID,20,VALID,0.145354,
2001-11-23, 02:51:00,VALID,917.292,VALID,0,VALID,98.3713,VALID,0.0169808,VALID,19.3034,VALID,20,VALID,0.361637,
2001-11-23, 02:52:00,VALID,917.293,VALID,0,VALID,98.3675,VALID,0.0339617,VALID,19.3036,VALID,20,VALID,0.581003,
2001-11-23, 02:53:00,VALID,917.301,VALID,0,VALID,98.3484,VALID,0.0509425,VALID,19.2967,VALID,20,VALID,0.751402,
2001-11-23, 02:54:00,VALID,917.298,VALID,0,VALID,98.3306,VALID,0.0169808,VALID,19.2738,VALID,22,VALID,0.663477,
2001-11-23, 02:55:00,VALID,917.309,VALID,0,VALID,98.2938,VALID,0.0169808,VALID,19.2545,VALID,22,VALID,0.529605,
2001-11-23, 02:56:00,VALID,917.318,VALID,0,VALID,98.3128,VALID,0.0849042,VALID,19.2318,VALID,22,VALID,0.454564,
2001-11-23, 02:57:00,VALID,917.321,VALID,0,VALID,98.2874,VALID,0.0849042,VALID,19.2194,VALID,21,VALID,0.414063,
2001-11-23, 02:58:00,VALID,917.32,VALID,0,VALID,98.295,VALID,0.0509425,VALID,19.1869,VALID,21,VALID,0.222039,
2001-11-23, 02:59:00,VALID,917.32,VALID,0,VALID,98.3434,VALID,0.0679233,VALID,19.1866,VALID,20,VALID,0.295641,
2001-11-23, 03:00:00,VALID,917.297,VALID,0,VALID,98.3726,VALID,0.0339617,VALID,19.1864,VALID,20,VALID,0.318668,
2001-11-23, 03:01:00,VALID,917.283,VALID,0,VALID,98.4082,VALID,0.0509425,VALID,19.1866,VALID,19,VALID,0.466947,
2001-11-23, 03:02:00,VALID,917.264,VALID,0,VALID,98.4349,VALID,0.0679233,VALID,19.2097,VALID,17,VALID,0.427734,
2001-11-23, 03:03:00,VALID,917.252,VALID,0,VALID,98.4527,VALID,0.0169808,VALID,19.2159,VALID,17,VALID,0.303043,
2001-11-23, 03:04:00,VALID,917.239,VALID,0,VALID,98.4578,VALID,0,VALID,19.2194,VALID,17,VALID,0.109786,
2001-11-23, 03:05:00,VALID,917.236,VALID,0,VALID,98.4095,VALID,-0.0679233,VALID,19.2075,VALID,13,VALID,0.0495477,
2001-11-23, 03:06:00,VALID,917.244,VALID,0,VALID,98.3891,VALID,-0.0509425,VALID,19.1878,VALID,5,VALID,0.18935,
2001-11-23, 03:07:00,VALID,917.238,VALID,0,VALID,98.379,VALID,-0.0509425,VALID,19.1848,VALID,5,VALID,0.410362,
2001-11-23, 03:08:00,VALID,917.251,VALID,0,VALID,98.365,VALID,-0.0509425,VALID,19.1915,VALID,357,VALID,0.42352,
2001-11-23, 03:09:00,VALID,917.252,VALID,0,VALID,98.3484,VALID,-0.0679233,VALID,19.1786,VALID,358,VALID,0.523838,
2001-11-23, 03:10:00,VALID,917.263,VALID,0,VALID,98.3701,VALID,-0.101885,VALID,19.1848,VALID,2,VALID,0.758594,
2001-11-23, 03:11:00,VALID,917.264,VALID,0,VALID,98.398,VALID,-0.0679233,VALID,19.2012,VALID,3,VALID,0.435033,
2001-11-23, 03:12:00,VALID,917.256,VALID,0,VALID,98.4158,VALID,-0.0849042,VALID,19.2174,VALID,3,VALID,0.374178,
2001-11-23, 03:13:00,VALID,917.264,VALID,0,VALID,98.398,VALID,-0.0849042,VALID,19.2206,VALID,6,VALID,0.616776,
2001-11-23, 03:14:00,VALID,917.277,VALID,0,VALID,98.3879,VALID,-0.0509425,VALID,19.2268,VALID,12,VALID,0.614515,
2001-11-23, 03:15:00,VALID,917.276,VALID,0,VALID,98.3612,VALID,-0.0679233,VALID,19.2499,VALID,4,VALID,0.593339,
2001-11-23, 03:16:00,VALID,917.257,VALID,0,VALID,98.3434,VALID,-0.0679233,VALID,19.2467,VALID,16,VALID,0.513158,
2001-11-23, 03:17:00,VALID,917.253,VALID,0,VALID,98.3052,VALID,-0.0509425,VALID,19.2427,VALID,16,VALID,0.348357,
2001-11-23, 03:18:00,VALID,917.277,VALID,0,VALID,98.2671,VALID,-0.0339617,VALID,19.2331,VALID,17,VALID,0.24668,
2001-11-23, 03:19:00,VALID,917.268,VALID,0,VALID,98.2556,VALID,-0.0679233,VALID,19.2398,VALID,345,VALID,0.430099,
2001-11-23, 03:20:00,VALID,917.262,VALID,0,VALID,98.2213,VALID,-0.0849042,VALID,19.2266,VALID,353,VALID,0.37315,
2001-11-23, 03:21:00,VALID,917.256,VALID,0,VALID,98.2175,VALID,-0.0339617,VALID,19.2465,VALID,7,VALID,0.128084,
2001-11-23, 03:22:00,VALID,917.261,VALID,0,VALID,98.2251,VALID,-0.0339617,VALID,19.2497,VALID,7,VALID,0,
2001-11-23, 03:23:00,VALID,917.28,VALID,0,VALID,98.2073,VALID,-0.101885,VALID,19.2492,VALID,7,VALID,0,
2001-11-23, 03:24:00,VALID,917.28,VALID,0,VALID,98.1641,VALID,-0.0679233,VALID,19.2559,VALID,351,VALID,0.389597,
2001-11-23, 03:25:00,VALID,917.281,VALID,0,VALID,98.1145,VALID,-0.0849042,VALID,19.2529,VALID,353,VALID,0.605168,
2001-11-23, 03:26:00,VALID,917.28,VALID,0,VALID,98.07,VALID,-0.0509425,VALID,19.2527,VALID,7,VALID,0.718359,
2001-11-23, 03:27:00,VALID,917.278,VALID,0,VALID,98.0928,VALID,-0.0849042,VALID,19.282,VALID,13,VALID,0.926809,
2001-11-23, 03:28:00,VALID,917.271,VALID,0,VALID,97.9911,VALID,-0.0679233,VALID,19.2917,VALID,8,VALID,0.86472,
2001-11-23, 03:29:00,VALID,917.282,VALID,0,VALID,97.9225,VALID,-0.101885,VALID,19.2979,VALID,6,VALID,0.449424,
2001-11-23, 03:30:00,VALID,917.289,VALID,0,VALID,97.8411,VALID,-0.0849042,VALID,19.3046,VALID,349,VALID,0.558799,
2001-11-23, 03:31:00,VALID,917.285,VALID,0,VALID,97.7724,VALID,-0.0849042,VALID,19.2981,VALID,312,VALID,0.298314,
2001-11-23, 03:32:00,VALID,917.284,VALID,0,VALID,97.7762,VALID,-0.0849042,VALID,19.291,VALID,259,VALID,0.259046,